Powrót do katalogu

COSMOS 2535 DEB

AktywnySSO
NORAD 44631·DEBRIS·🇷🇺 Russia

Wystrzelony Jul 10, 2019 z Plesetsk Cosmodrome

Loading…

Następne Przeloty (najbliższe 24 godziny)

TLE

ŚwieżeSource: Space-Track

Epoka: Sep 14, 2026, 13:19 UTC

1 44631U 19039H   26257.55496273  .00005418  00000-0  29055-3 0  9995
2 44631  97.5125 295.8949 0019957 110.7735 249.5638 15.15216162378476

Śledź COSMOS 2535 DEB w czasie rzeczywistym z AllMySat

Download on the App Store